Regional Weather Roundup
Issued by NWS

Home | Current Version | Previous Version | Text Only | Print | Product List | Glossary On
Versions: 1 2 3 4 5 6 7 8 9 10 11 12 13 14 15 16 17 18 19 20 21 22 23 24 25 26 27 28 29 30 31 32 33 34 35 36 37 38 39 40 41 42 43 44 45 46 47 48 49 50
000
ASUS44 KFWD 312315
RWRTX
NORTH TEXAS HOURLY WEATHER ROUNDUP
NATIONAL WEATHER SERVICE FORT WORTH TX
600 PM CDT TUE MAY 31 2016

NOTE: "FAIR" INDICATES FEW OR NO CLOUDS BELOW 12,000 FEET WITH NO
SIGNIFICANT WEATHER AND/OR OBSTRUCTIONS TO VISIBILITY.

TXZ118-119-010000-
DALLAS/FORT WORTH METROPLEX

CITY           SKY/WX    TMP DP  RH WIND       PRES   REMARKS
DFW AIRPORT    TSTM      70  66  87 W15G22    29.89R FOG
DALLAS LOVE    TSTM      69  68  96 N18       29.87F FOG
FTW MEACHAM    RAIN      69  66  90 S8        29.90R
DAL-EXECUTIVE  TSTM      68  65  90 W7        29.87S
FTW-ALLIANCE   TSTM      69  68  96 S5        29.91R FOG
FTW-NAS-JRB    TSTM      69  67  93 SE12      29.91S FOG
FTW-SPINKS     TSTM      70  68  94 W9        29.91R
ARLINGTON      RAIN      71  67  87 W7        29.87F
GRAND PRAIRIE  LGT RAIN  70  70 100 W9        29.88S
MESQUITE       TSTM      72  70  94 NW20G29   29.90R
LANCASTER      CLOUDY    69  65  88 W9        29.87S
$$

TXZ091>094-102>105-117-120-121-131>134-010000-
NORTH CENTRAL TEXAS

CITY           SKY/WX    TMP DP  RH WIND       PRES   REMARKS
SHRMAN/DENISON LGT RAIN  65  62  89 SE14      29.89F
GAINESVILLE    LGT RAIN  68  65  89 SE9       29.90S
BOWIE          CLOUDY    70  67  90 SE8       29.83F
BRIDGEPORT     CLOUDY    68  68  99 S13       29.88F
DECATUR        RAIN      68  67  97 S10       29.91R
DENTON         TSTM      67  66  97 S10       29.92R VSB 1
MCKINNEY       TSTM      67  66  97 E14G21    29.91R FOG
GREENVILLE     CLOUDY    68  64  88 NE10G17   29.87R
ROCKWALL       TSTM      67  67 100 NE18G25   29.87R
TERRELL        LGT RAIN  71  67  87 NE12      29.86R
WAXAHACHIE     RAIN      69  69 100 W7        29.88S
CLEBURNE       HVY RAIN  66  66 100 N7        29.91F
GRANBURY       RAIN      68  67  96 N3        29.90F
$$

TXZ083>090-098>101-113>116-127>130-139>142-154-155-010000-
WESTERN NORTH TEXAS

CITY           SKY/WX    TMP DP  RH WIND       PRES   REMARKS
WICHITA FALLS  CLOUDY    74  64  71 S7        29.86R
WF-KICKAPOO    CLOUDY    75  65  71 SE7       29.86R
VERNON         CLOUDY    82  61  49 SE15      29.86R
ABILENE        CLOUDY    67  67 100 SE10      29.84F
ABILENE-DYESS  MOSUNNY   69  64  85 SE8       29.82F
BRECKENRIDGE   LGT RAIN  69  67  93 S14       29.84F
GRAHAM         RAIN      68  67  98 S7G16     29.82S
MINERAL WELLS  LGT RAIN  68  67  96 SE7       29.88F
STEPHENVILLE     N/A     68  65  92 NE3       29.93R
COMANCHE       CLOUDY    69  69 100 NE7       29.89S
BROWNWOOD      PTSUNNY   73  66  78 NE12      29.87R
COLEMAN        CLOUDY    73  63  71 NE10      29.87S THUNDER
$$

TXZ143>147-156>162-174-175-010000-
CENTRAL TEXAS

CITY           SKY/WX    TMP DP  RH WIND       PRES   REMARKS
WACO           RAIN      70  68  93 VRB3      29.88R FOG
WACO-TSTC      RAIN      72  68  88 W15G26    29.86
WACO-MCGREGOR  TSTM      70  68  94 NE9       29.84F FOG
HILLSBORO      TSTM      68  67  96 NW13G20   29.88S
CORSICANA      CLOUDY    80  72  76 W5        29.84F
MEXIA          CLOUDY    79  65  61 S7G21     29.83F
HEARNE         CLOUDY    80  74  82 CALM      29.84S
CAMERON        CLOUDY    77  74  92 W3        29.84F
TEMPLE         CLOUDY    75  71  87 S17       29.83F
KILLEEN        CLOUDY    72  70  94 E8        29.79F
KILLEEN-SKYLRK CLOUDY    71  66  84 SE12      29.81F
FORT HOOD      CLOUDY    70  66  88 SE10      29.79F
GATESVILLE     CLOUDY    72  72 100 N5        29.86S
HAMILTON       DRIZZLE   70  70 100 NE5       29.88R
LAMPASAS       CLOUDY    71  69  94 E5        29.80R
$$

TXZ095>097-106>112-122>126-135>138-148>153-164>167-010000-
EAST TEXAS

CITY           SKY/WX    TMP DP  RH WIND       PRES   REMARKS
PARIS          CLOUDY    66  57  72 NE15      29.93S
SULPHUR SPRNGS RAIN      68  67  97 NE13      29.95R
MOUNT PLEASANT CLOUDY    69  68  96 NW18      29.92R
GILMER         CLOUDY    79  71  78 NW5       29.87R
MINEOLA        TSTM      72  68  88 N6        29.88R
TYLER          CLOUDY    83  70  64 S8        29.85R
LONGVIEW       CLOUDY    83  70  64 S5        29.84R
MARSHALL       CLOUDY    81  71  71 CALM      29.88R
ATHENS         CLOUDY    79  73  83 CALM      29.82S
PALESTINE      CLOUDY    83  72  70 S3        29.86R
JACKSONVILLE   CLOUDY    82  70  66 SE5       29.88R
HENDERSON      CLOUDY    83  69  63 S5        29.86R
CENTER         FAIR      86  70  58 S7        29.84S HX  90
NACOGDOCHES    CLOUDY    82  70  65 SE5       29.84R
LUFKIN         CLOUDY    85  70  60 S5        29.83F
$$

SUPPLEMENTAL OBSERVATIONS (CENTRAL)

CITY           SKY/WX    TMP DP  RH WIND       PRES   REMARKS
CADDO GRASSLND   N/A     66  63  88 E6          N/A
PAT MAYSE LAKE   N/A     66  64  94 NE7         N/A
GREENVILLE       N/A     66  63  88 NE12G20     N/A
LAKE LIMESTONE   N/A     75  70  83 SW10G20     N/A
MCGREGOR         N/A     70  64  83 E9G21       N/A
TEMPLE           N/A     72  68  88 S8          N/A
$$

SUPPLEMENTAL OBSERVATIONS (WEST)

CITY           SKY/WX    TMP DP  RH WIND       PRES   REMARKS
MILLERS CREEK    N/A     70  64  83 SE6         N/A
POSSUM KINGDOM   N/A     66  63  88 S8G20       N/A
LBJ GRASSLAND    N/A     68  66  94 SE9         N/A
GRANBURY         N/A     68  66  94 N3          N/A
COMANCHE         N/A     70  66  88 NE12        N/A
HAMBY            N/A     66  61  82 SE6G18      N/A
COLORADO BEND    N/A     72  68  88 W3G15       N/A
$$

SUPPLEMENTAL OBSERVATIONS (EAST)

CITY           SKY/WX    TMP DP  RH WIND       PRES   REMARKS
TEXARKANA        N/A     75  66  73 NE5         N/A
LINDEN           N/A     81  72  74 N3          N/A
CADDO LAKE       N/A     82  75  78 CALM        N/A
GILMER           N/A     79  68  69 N6G20       N/A
HENDERSON        N/A     84  70  61 S5          N/A
LUFKIN           N/A     86  70  58 MISG        N/A  HX  90
N SABINE NF      N/A     86  73  66 MISG        N/A  HX  93
$$

SUPPLEMENTAL OBSERVATIONS ARE A COLLECTION OF AUTOMATED INSTRUMENTS
THAT ARE MAINTAINED BY A VARIETY OF FEDERAL AND STATE AGENCIES.
CERTAIN ELEMENTS...SUCH AS HUMIDITY VALUES AND SUSTAINED WIND
SPEEDS...MAY BE APPROXIMATED.





USA.gov is the U.S. government's official web portal to all federal, state and local government web resources and services.